TimePDT,TemperatureF,Dew PointF,Humidity,Sea Level PressureIn,VisibilityMPH,Wind Direction,Wind SpeedMPH,Gust SpeedMPH,PrecipitationIn,Events,Conditions,WindDirDegrees,DateUTC
12:56 AM,80.1,46.9,31,29.76,10.0,NW,3.5,-,N/A,,Clear,310,2012-10-10 07:56:00
1:56 AM,81.0,44.1,27,29.75,10.0,SW,3.5,-,N/A,,Clear,220,2012-10-10 08:56:00
2:56 AM,81.0,51.1,35,29.75,10.0,Calm,Calm,-,N/A,,Clear,0,2012-10-10 09:56:00
3:56 AM,79.0,53.1,40,29.76,10.0,Calm,Calm,-,N/A,,Clear,0,2012-10-10 10:56:00
4:56 AM,77.0,48.0,36,29.76,10.0,Calm,Calm,-,N/A,,Clear,0,2012-10-10 11:56:00
5:56 AM,77.0,55.9,48,29.78,10.0,SW,4.6,-,N/A,,Clear,230,2012-10-10 12:56:00
6:56 AM,78.1,59.0,52,29.79,10.0,South,3.5,-,N/A,,Clear,180,2012-10-10 13:56:00
7:56 AM,79.0,61.0,54,29.81,10.0,SW,6.9,-,N/A,,Clear,220,2012-10-10 14:56:00
8:56 AM,81.0,60.1,49,29.82,10.0,SSW,5.8,-,N/A,,Clear,200,2012-10-10 15:56:00
9:56 AM,82.0,59.0,45,29.82,10.0,SW,11.5,-,N/A,,Clear,220,2012-10-10 16:56:00
10:56 AM,84.9,55.9,37,29.81,10.0,SSW,12.7,16.1,N/A,,Clear,200,2012-10-10 17:56:00
11:56 AM,86.0,57.0,37,29.80,10.0,SE,10.4,16.1,N/A,,Mostly Cloudy,140,2012-10-10 18:56:00
12:56 PM,89.1,55.0,31,29.75,10.0,SSE,16.1,21.9,N/A,,Partly Cloudy,150,2012-10-10 19:56:00
1:56 PM,90.0,50.0,25,29.73,10.0,South,13.8,24.2,N/A,,Partly Cloudy,190,2012-10-10 20:56:00
2:56 PM,89.1,46.9,23,29.69,10.0,South,9.2,19.6,N/A,,Partly Cloudy,190,2012-10-10 21:56:00
3:56 PM,91.0,46.0,21,29.68,10.0,SW,13.8,-,N/A,,Scattered Clouds,220,2012-10-10 22:56:00
4:13 PM,89.6,46.4,22,29.77,10.0,South,15.0,-,N/A,Thunderstorm,Partly Cloudy,170,2012-10-10 23:13:00
4:28 PM,89.6,46.4,22,29.76,10.0,SSW,17.3,23.0,N/A,,Partly Cloudy,210,2012-10-10 23:28:00
4:56 PM,89.1,46.0,22,29.68,10.0,South,9.2,-,N/A,,Partly Cloudy,190,2012-10-10 23:56:00
5:56 PM,86.0,46.0,25,29.68,10.0,WSW,11.5,-,0.00,,Overcast,240,2012-10-11 00:56:00
6:56 PM,82.9,54.0,37,29.69,10.0,West,13.8,-,0.00,,Overcast,260,2012-10-11 01:56:00
7:56 PM,73.9,64.0,71,29.75,4.0,SSW,9.2,33.4,0.07,Rain,Heavy Rain,200,2012-10-11 02:56:00
8:56 PM,75.9,62.1,62,29.73,10.0,Calm,Calm,-,0.01,,Overcast,0,2012-10-11 03:56:00
9:56 PM,75.0,63.0,66,29.73,10.0,NW,3.5,-,0.00,,Mostly Cloudy,310,2012-10-11 04:56:00
10:56 PM,73.0,64.9,76,29.72,10.0,Calm,Calm,-,N/A,,Partly Cloudy,0,2012-10-11 05:56:00
11:56 PM,72.0,64.9,78,29.72,10.0,West,4.6,-,N/A,,Clear,260,2012-10-11 06:56:00